Theta_e
321 321 320 320 320 319 318 316 312 308 310 312 307 308 309 309 308 307 303 301 305 307 308 309 310 311 311 311 312 313 313 315 317 316 314 312 310 308
321 320 320 320 320 320 319 317 316 312 309 315 314 309 308 304 301 301 301 297 300 303 305 306 308 309 309 309 310 310 311 312 316 315 313 311 309 307
322 321 320 321 320 320 319 318 316 315 311 314 316 313 305 304 296 297 296 297 297 299 302 304 305 305 306 307 307 308 309 311 312 311 310 309 308 307
321 320 320 320 319 320 319 317 317 317 314 312 314 304 304 297 296 294 293 294 295 296 299 301 303 303 303 304 305 306 307 309 309 309 308 308 307 306
321 320 320 320 318 319 319 318 317 317 317 314 313 293 290 291 290 289 289 289 291 294 297 298 299 300 300 301 302 303 303 304 305 305 306 306 305 304
321 320 320 320 319 318 318 317 317 315 314 313 311 293 290 286 287 287 286 286 286 290 292 293 295 297 299 301 302 300 300 302 303 302 302 302 302 301
316 318 319 313 303 311 316 316 315 313 311 306 291 289 288 286 288 287 287 285 285 286 286 286 287 288 293 299 297 297 300 301 301 300 299 299 298 298
304 307 308 298 300 298 298 298 304 311 307 300 295 291 290 291 287 287 285 285 286 286 286 285 286 286 287 289 296 299 300 300 299 298 298 297 297 296
298 300 299 297 293 298 296 296 296 298 302 302 294 294 290 291 288 286 286 286 287 284 285 284 285 285 286 288 296 298 299 298 298 298 297 297 296 295
295 295 295 295 294 293 293 291 290 290 292 293 293 292 291 291 291 289 288 285 284 284 285 284 283 284 285 286 293 297 297 298 298 297 296 295 295 294
290 291 292 291 292 293 290 288 286 286 290 292 293 294 293 293 290 288 286 286 282 282 284 284 283 283 283 283 285 293 296 296 296 296 295 295 294 293
289 288 287 289 291 292 289 288 287 286 286 286 286 289 289 289 290 287 288 287 283 281 284 283 282 282 280 280 282 284 288 293 294 294 294 293 292 284
287 288 288 289 291 292 292 287 288 286 288 286 285 285 285 285 285 285 286 287 284 283 284 283 281 280 279 277 280 280 282 285 286 290 293 291 291 284
287 288 287 289 291 292 291 290 291 287 285 285 284 284 283 283 283 284 284 284 284 284 285 283 280 280 277 275 274 278 277 278 280 279 280 287 288 287
287 287 289 289 291 291 291 290 287 285 285 284 283 282 282 282 282 282 283 283 283 283 283 282 281 279 274 272 275 273 276 276 276 277 277 278 278 278
286 286 288 287 287 286 285 286 284 285 285 284 281 281 282 281 281 281 281 281 280 280 282 283 282 281 276 275 273 275 273 274 274 274 276 275 277 277
285 284 283 282 281 281 281 282 282 283 282 281 281 280 280 280 280 281 280 279 278 278 279 280 282 281 281 279 275 272 272 273 274 275 274 274 274 274
280 278 277 278 277 278 278 278 278 279 280 280 280 280 279 279 278 279 279 278 277 278 278 278 279 278 277 277 279 272 272 273 274 275 275 274 272 270
270 271 271 271 272 274 275 275 275 277 279 279 279 279 278 278 278 277 277 277 276 277 277 277 277 274 271 268 272 280 274 271 272 272 271 269 269 269
265 265 265 266 267 268 269 270 272 273 274 274 275 276 277 277 276 276 276 275 275 275 275 276 276 274 273 272 271 273 278 273 271 269 268 268 270 274
263 263 263 263 264 265 266 267 267 268 268 269 269 270 271 273 272 273 274 274 273 273 272 273 273 274 272 273 271 270 271 276 273 270 268 266 266 265
261 261 261 261 262 262 263 264 264 264 265 265 266 266 267 268 268 269 269 270 270 271 271 272 271 271 270 271 270 269 268 269 271 274 274 272 265 262
259 260 260 260 260 260 260 260 261 261 262 262 263 263 264 264 265 266 267 267 267 268 269 269 270 270 270 270 269 268 266 266 266 266 267 273 274 275
Wind_Speed
15 15 14 12 11 11 11 11 11 11 12 7 6 9 8 7 11 10 10 10 16 18 18 18 19 19 19 19 21 18 20 18 21 25 27 25 25 21
12 15 14 12 13 11 10 10 10 12 15 8 8 6 7 5 4 5 6 7 11 12 13 13 14 16 17 19 16 18 16 17 22 23 24 24 22 21
15 15 17 17 12 12 11 11 12 12 14 11 10 7 6 6 4 3 3 3 3 7 10 13 13 13 14 16 14 15 17 19 21 22 21 21 21 21
16 16 17 12 16 15 11 14 13 13 12 17 10 6 8 2 3 5 3 2 3 9 12 10 11 12 11 11 10 11 12 15 17 20 22 23 21 19
15 16 17 15 15 12 13 12 12 11 12 12 12 2 2 1 2 2 3 2 3 5 9 9 11 12 12 13 14 12 11 11 11 11 16 17 18 16
13 14 15 15 15 15 13 14 11 11 11 11 10 3 2 1 2 2 3 2 2 3 4 4 6 7 13 13 12 13 13 13 13 13 14 12 12 11
12 12 13 13 16 15 10 11 11 10 10 8 2 2 3 3 6 4 3 2 2 3 3 2 2 1 4 8 6 12 16 16 16 16 15 14 12 10
12 10 7 7 8 12 12 12 10 8 10 6 4 5 5 4 3 4 4 4 3 5 4 4 3 3 2 2 7 12 16 16 17 16 16 15 13 10
14 12 9 5 6 6 6 8 9 12 15 7 6 8 5 10 8 4 5 4 3 3 4 2 2 3 1 2 9 11 14 16 17 17 16 15 13 11
11 10 9 11 7 7 6 5 6 4 4 4 5 6 4 8 9 6 6 5 4 3 2 3 2 2 2 1 5 11 11 13 15 16 16 15 13 10
10 9 8 9 9 11 7 6 3 2 2 3 3 4 9 12 11 8 6 7 2 2 4 2 3 2 2 0 1 8 10 13 13 13 12 12 11 11
9 8 10 10 11 11 8 7 7 5 4 2 2 6 7 8 10 2 8 9 4 2 5 4 3 4 3 0 0 1 2 10 11 13 13 13 13 4
7 8 6 10 12 12 12 6 7 6 6 3 4 3 4 4 3 3 3 4 3 2 6 4 3 3 3 3 1 1 1 3 2 6 12 13 12 9
8 7 7 11 13 13 9 8 7 8 5 4 4 3 4 3 3 4 5 5 4 3 10 3 3 3 4 2 3 1 2 2 3 3 3 8 11 11
6 8 14 12 9 7 8 9 8 5 5 4 4 2 3 5 6 6 7 9 9 7 4 2 4 4 3 3 4 3 5 0 2 4 3 4 4 3
6 5 4 2 4 4 2 4 2 2 3 4 3 4 4 4 4 3 4 4 5 4 6 6 5 3 3 3 3 3 1 4 2 2 3 2 3 3
1 3 4 4 5 5 5 5 4 3 3 2 4 5 5 5 3 3 4 3 3 3 3 3 5 6 4 5 3 2 2 2 2 3 3 2 1 2
6 6 7 6 7 6 7 6 7 7 5 4 5 4 4 4 4 3 3 3 4 3 3 2 3 3 3 4 4 2 2 3 2 3 2 2 0 2
11 10 10 9 9 8 7 7 7 7 7 6 5 5 4 3 3 3 3 3 4 3 3 2 3 3 2 2 2 5 3 2 3 2 2 2 3 2
12 11 11 11 10 10 9 9 9 8 8 8 7 7 5 3 2 3 2 2 3 3 2 2 3 2 3 3 2 1 5 3 2 3 2 2 1 4
11 11 10 10 10 10 10 9 9 9 9 8 8 7 6 4 4 4 4 6 4 2 3 2 3 4 3 2 2 1 1 5 4 3 3 2 1 2
10 10 10 10 10 10 9 9 9 10 9 9 8 7 6 6 7 6 6 4 3 3 2 2 2 2 2 2 2 2 0 2 4 1 6 5 5 2
10 9 9 9 9 9 9 8 8 8 8 7 7 7 7 6 5 5 5 5 4 3 3 1 1 1 1 1 2 2 2 1 1 0 1 8 11 15
Wind_Direction
231 230 232 234 234 230 230 228 234 255 256 236 232 213 225 223 227 219 219 219 220 217 222 222 222 221 228 227 236 236 246 241 225 194 195 195 198 197
230 230 230 229 230 228 223 224 226 239 260 247 241 217 208 218 225 213 212 182 200 211 221 218 218 219 221 234 227 233 236 246 195 189 189 192 191 194
236 234 232 228 227 227 222 221 226 226 246 250 246 225 206 209 187 151 142 151 158 221 223 207 214 222 226 224 225 236 248 243 181 182 182 187 194 201
239 236 237 236 236 233 225 228 228 225 235 252 240 218 212 167 160 152 161 168 201 189 214 221 215 215 207 217 222 239 237 180 184 185 190 195 201 203
243 240 240 238 238 234 232 233 228 229 233 242 250 88 95 165 136 126 150 162 160 200 208 208 219 224 225 226 226 221 192 169 176 194 192 197 194 196
253 245 244 240 241 240 238 238 230 235 232 238 240 168 151 165 124 154 222 119 167 213 197 192 221 224 231 227 218 189 181 176 174 169 159 170 180 184
289 251 242 240 241 238 234 241 240 241 240 221 154 145 165 176 197 159 145 164 184 163 157 176 180 209 223 205 209 191 179 177 172 167 161 164 166 174
288 284 288 289 269 261 258 271 270 243 245 196 192 198 189 218 160 165 123 170 211 189 147 181 159 204 208 208 206 196 185 176 171 167 168 173 178 184
287 287 288 264 258 267 253 250 246 235 232 203 198 199 202 192 151 174 160 180 177 152 109 124 158 196 166 227 200 203 185 177 178 178 178 179 172 175
281 280 282 286 259 239 232 233 235 255 254 223 203 195 204 168 173 174 160 112 72 99 106 142 153 163 159 204 219 187 166 170 176 174 175 176 180 191
281 272 265 270 259 229 218 216 240 262 269 239 213 194 170 163 151 126 151 147 125 173 176 128 162 106 76 74 266 228 183 174 176 179 178 182 186 190
279 275 263 264 273 232 215 208 214 212 171 115 107 90 101 144 142 113 158 164 128 137 181 141 134 146 133 334 220 253 181 208 198 186 181 186 189 123
277 283 272 259 268 253 218 197 213 154 168 133 107 98 96 97 94 84 105 140 138 120 171 126 143 141 82 131 61 49 124 112 123 168 174 178 171 148
268 273 271 269 260 254 230 219 195 157 147 147 143 141 136 123 99 93 85 83 59 110 150 115 126 149 131 120 152 131 32 59 101 108 105 146 144 139
265 267 276 264 250 253 227 216 174 163 162 164 166 137 118 117 110 96 85 83 74 72 76 92 126 123 102 121 149 155 128 149 73 119 117 135 142 133
297 285 268 98 82 81 72 95 86 143 156 145 119 106 112 116 114 101 105 99 93 77 52 58 80 92 84 81 108 132 125 157 135 124 111 91 112 131
38 49 41 33 37 34 31 33 32 44 73 84 130 125 119 112 102 99 100 85 96 127 115 81 70 65 61 112 84 98 123 91 125 126 97 120 138 162
42 45 48 41 49 47 38 28 29 33 45 59 67 72 79 95 102 87 90 110 119 126 109 101 109 80 59 41 61 127 79 120 119 115 99 124 97 280
36 30 38 30 25 28 35 39 35 23 36 50 53 55 67 86 82 75 79 89 94 92 83 85 84 95 97 145 321 42 133 122 122 119 133 157 163 239
30 23 26 25 20 22 24 24 23 20 32 39 42 37 31 47 59 82 85 96 93 82 84 70 90 115 140 183 155 79 30 121 142 138 152 134 229 268
16 20 20 20 22 23 18 18 30 28 24 26 30 35 17 27 42 39 51 54 64 58 95 90 62 63 96 95 91 87 41 34 136 143 140 114 90 327
21 17 13 15 15 20 20 16 20 24 23 20 23 23 20 31 26 23 32 44 41 50 63 92 99 95 98 179 185 152 121 10 25 107 176 164 157 232
12 12 14 15 14 13 14 19 23 19 16 13 13 11 10 21 24 31 19 21 32 34 27 27 64 69 145 198 180 171 188 242 329 299 256 249 259 263